User: anonymous   Login
Location: *
(43.9900°N, 3.4811°E)
Time: 03:41:45
(UTC+00:00)
Language:

SJ 16-02 - Orbit

View from above orbital plane
View from above orbital plane
View from above satellite
View from above satellite

Ground track
Ground track

The orbit data is extracted from the following two-line orbital elements,

1 41634U 16043A   19289.02021829  .00000150  00000-0  20512-4 0  9995
2 41634  75.0045 171.5356 0008179 174.1894 185.9392 14.85611406178793
Epoch (UTC): 16 October 2019 00:29:06
Eccentricity: 0.0008179
inclination: 75.0045°
perigee height: 606 km
apogee height: 617 km
right ascension of ascending node: 171.5356°
argument of perigee: 174.1894°
revolutions per day: 14.85611406
mean anomaly at epoch: 185.9392°
orbit number at epoch: 17879

The dashed part of the orbit path shows where the satellite is in the earth's shadow,  

DLR